EW9455 Weather Reports


Display with metric or nautical units.
time (UTC)temp
F
wind
direction
speed
MPH
gust
MPH
rain 1hr
in
rain 24hr
in
rain mn
in
humidity
%
barometer
mb
20180620040015 76 0.0 0.0 0.00 0.00 0.00 81 1014.8
20180620035016 76 0.0 4.0 0.00 0.00 0.00 81 1014.7
20180620034016 76 0.0 1.0 0.00 0.00 0.00 81 1014.8
20180620033016 76 0.0 2.0 0.00 0.00 0.00 82 1014.9
20180620032016 76 0.0 0.0 0.00 0.00 0.00 82 1014.8
20180620031016 76 0.0 0.0 0.00 0.00 0.00 82 1014.9
20180620030016 77 0.0 0.0 0.00 0.00 0.00 81 1014.8
20180620025016 77 0.0 0.0 0.00 0.00 0.00 81 1014.8
20180620024016 78 0.0 0.0 0.00 0.00 0.00 79 1014.6
20180620023016 78 165 0.0 5.0 0.00 0.00 0.00 76 1014.6
20180620022016 78 152 1.0 4.0 0.00 0.00 0.00 76 1014.5
20180620021015 78 154 1.0 4.0 0.00 0.00 0.00 77 1014.5
20180620020016 79 0.0 0.0 0.00 0.00 0.00 77 1014.5
20180620015015 79 140 0.0 4.0 0.00 0.00 0.00 75 1014.3
20180620014015 79 169 0.0 4.0 0.00 0.00 0.00 75 1014.3
20180620013016 79 167 0.0 3.0 0.00 0.00 0.00 75 1014.4
20180620012015 79 175 0.0 2.0 0.00 0.00 0.00 75 1014.2
20180620011015 80 0.0 1.0 0.00 0.00 0.00 74 1013.9
20180620010015 80 146 2.0 7.0 0.00 0.00 0.00 73 1013.9
20180620005015 80 145 3.0 9.0 0.00 0.00 0.00 72 1013.7
20180620004015 80 136 2.0 7.0 0.00 0.00 0.00 72 1013.8
20180620003015 81 143 3.0 7.0 0.00 0.00 0.00 71 1013.8
20180620002015 81 139 3.0 8.0 0.00 0.00 0.00 69 1013.8
20180620001015 81 138 3.0 8.0 0.00 0.00 0.00 68 1014.0
20180620000015 82 137 3.0 7.0 0.00 0.00 0.00 67 1014.0
20180619235015 82 133 3.0 8.0 0.00 0.00 0.00 67 1014.1
20180619234015 82 125 3.0 8.0 0.00 0.00 0.00 67 1014.2
20180619233015 82 123 3.0 7.0 0.00 0.00 0.00 66 1014.1
20180619232015 83 144 2.0 6.0 0.00 0.00 0.00 64 1014.1
20180619231015 83 131 2.0 7.0 0.00 0.00 0.00 62 1014.0
20180619230015 83 133 2.0 9.0 0.00 0.00 0.00 63 1013.9
20180619225015 84 121 3.0 10.0 0.00 0.00 0.00 62 1013.8
20180619224015 84 123 4.0 9.0 0.00 0.00 0.00 62 1013.7
20180619223015 84 127 4.0 8.0 0.00 0.00 0.00 61 1013.6
20180619222015 85 142 4.0 10.0 0.00 0.00 0.00 59 1013.3
20180619221015 85 131 5.0 11.0 0.00 0.00 0.00 57 1013.7
20180619220017 85 122 5.0 11.0 0.00 0.00 0.00 59 1013.7
20180619215017 85 124 3.0 10.0 0.00 0.00 0.00 60 1013.8
20180619214017 86 152 4.0 11.0 0.00 0.00 0.00 58 1013.9
20180619213016 85 140 5.0 11.0 0.00 0.00 0.00 59 1013.9
20180619212017 85 138 4.0 11.0 0.00 0.00 0.00 59 1014.0
20180619211016 85 138 4.0 13.0 0.00 0.00 0.00 58 1014.1
20180619210016 85 145 3.0 10.0 0.00 0.00 0.00 60 1014.3
20180619205016 84 113 4.0 10.0 0.00 0.00 0.00 62 1014.4
20180619204016 85 138 6.0 13.0 0.00 0.00 0.00 62 1014.4
20180619203017 85 133 4.0 12.0 0.00 0.00 0.00 57 1014.6
20180619202016 85 119 6.0 13.0 0.00 0.00 0.00 60 1014.6
20180619201016 86 131 4.0 10.0 0.00 0.00 0.00 60 1014.7
20180619200017 86 140 4.0 10.0 0.00 0.00 0.00 59 1014.8
20180619195016 85 140 5.0 10.0 0.00 0.00 0.00 59 1014.9
20180619194016 86 126 4.0 12.0 0.00 0.00 0.00 60 1015.1
20180619193016 85 130 6.0 15.0 0.00 0.00 0.00 62 1015.1
20180619192016 85 124 4.0 11.0 0.00 0.00 0.00 62 1015.1
20180619191016 84 123 4.0 11.0 0.00 0.00 0.00 63 1015.2
20180619190016 85 121 5.0 14.0 0.00 0.00 0.00 62 1015.3
20180619185016 84 111 4.0 13.0 0.00 0.00 0.00 65 1015.3
20180619184016 84 112 5.0 13.0 0.00 0.00 0.00 62 1015.4
20180619183016 84 104 4.0 13.0 0.00 0.00 0.00 65 1015.5
20180619182016 85 113 4.0 12.0 0.00 0.00 0.00 63 1015.7
20180619181016 84 101 4.0 11.0 0.00 0.00 0.00 63 1015.9
20180619180016 85 118 5.0 14.0 0.00 0.00 0.00 62 1016.1
20180619175016 85 126 5.0 12.0 0.00 0.00 0.00 64 1016.1
20180619174016 85 119 3.0 11.0 0.00 0.00 0.00 65 1016.2
20180619173016 84 106 3.0 10.0 0.00 0.00 0.00 64 1016.4
20180619172016 85 109 4.0 10.0 0.00 0.00 0.00 61 1016.5
20180619171016 85 119 3.0 10.0 0.00 0.00 0.00 62 1016.6
20180619170016 85 118 4.0 8.0 0.00 0.00 0.00 63 1016.6
20180619165016 84 113 4.0 11.0 0.00 0.00 0.00 59 1016.7
20180619164015 86 145 3.0 7.0 0.00 0.00 0.00 60 1016.6
20180619163015 85 132 3.0 10.0 0.00 0.00 0.00 58 1016.7
20180619162015 85 109 2.0 13.0 0.00 0.00 0.00 60 1016.8
20180619161015 86 134 1.0 10.0 0.00 0.00 0.00 60 1016.8
20180619160015 84 110 2.0 8.0 0.00 0.00 0.00 58 1016.9
20180619155015 85 126 3.0 9.0 0.00 0.00 0.00 63 1016.8
20180619154015 85 139 2.0 7.0 0.00 0.00 0.00 64 1016.8
20180619153015 84 124 3.0 8.0 0.00 0.00 0.00 67 1016.9
20180619152015 83 114 2.0 9.0 0.00 0.00 0.00 70 1016.8
20180619151015 83 116 4.0 10.0 0.00 0.00 0.00 67 1016.9
20180619150016 83 116 4.0 9.0 0.00 0.00 0.00 65 1016.8
20180619145015 83 121 4.0 8.0 0.00 0.00 0.00 67 1016.8
20180619144015 84 115 1.0 8.0 0.00 0.00 0.00 68 1016.9
20180619143015 83 128 1.0 7.0 0.00 0.00 0.00 67 1016.9
20180619142015 84 0.0 0.0 0.00 0.00 0.00 66 1016.9
20180619141015 84 0.0 0.0 0.00 0.00 0.00 68 1017.0
20180619140015 84 0.0 0.0 0.00 0.00 0.00 68 1017.0
20180619135015 83 0.0 0.0 0.00 0.00 0.00 71 1016.9
20180619134015 82 0.0 0.0 0.00 0.00 0.00 71 1017.1
20180619133015 82 0.0 0.0 0.00 0.00 0.00 72 1017.2
20180619132015 83 0.0 0.0 0.00 0.00 0.00 71 1017.2
20180619131015 83 0.0 0.0 0.00 0.00 0.00 72 1017.2
20180619130015 82 0.0 0.0 0.00 0.00 0.00 73 1017.2
20180619125017 82 0.0 0.0 0.00 0.00 0.00 72 1017.3
20180619124017 82 0.0 0.0 0.00 0.00 0.00 75 1017.3
20180619123017 80 0.0 2.0 0.00 0.00 0.00 77 1017.3
20180619122017 80 208 0.0 3.0 0.00 0.00 0.00 78 1017.2
20180619121017 79 214 0.0 2.0 0.00 0.00 0.00 80 1017.1
20180619120017 77 0.0 1.0 0.00 0.00 0.00 82 1017.0
20180619115017 76 0.0 0.0 0.00 0.00 0.00 83 1017.0
20180619114016 75 0.0 0.0 0.00 0.00 0.00 84 1016.9
20180619113016 75 0.0 0.0 0.00 0.00 0.00 84 1017.0
20180619112016 74 0.0 0.0 0.00 0.00 0.00 84 1016.5
20180619111016 73 0.0 0.0 0.00 0.00 0.00 84 1016.9
20180619110016 73 0.0 0.0 0.00 0.00 0.00 84 1016.8
20180619105016 73 0.0 0.0 0.00 0.00 0.00 84 1016.7
20180619104017 73 0.0 0.0 0.00 0.00 0.00 84 1016.6
20180619103016 73 0.0 0.0 0.00 0.00 0.00 84 1016.5
20180619102016 73 0.0 0.0 0.00 0.00 0.00 84 1016.5
20180619101016 73 0.0 0.0 0.00 0.00 0.00 84 1016.4
20180619100016 73 0.0 0.0 0.00 0.00 0.00 84 1016.3
20180619095016 73 0.0 0.0 0.00 0.00 0.00 84 1016.2
20180619094016 73 0.0 0.0 0.00 0.00 0.00 84 1016.2
20180619093016 73 0.0 0.0 0.00 0.00 0.00 84 1016.0
20180619091016 73 0.0 0.0 0.00 0.00 0.00 84 1015.9
20180619090016 73 0.0 0.0 0.00 0.00 0.00 84 1015.7
20180619085016 73 0.0 0.0 0.00 0.00 0.00 84 1015.7
20180619084016 74 0.0 0.0 0.00 0.00 0.00 84 1015.7
20180619083016 73 0.0 0.0 0.00 0.00 0.00 84 1015.3
20180619082016 73 0.0 0.0 0.00 0.00 0.00 84 1015.6
20180619081016 74 0.0 0.0 0.00 0.00 0.00 84 1015.7
20180619080016 74 0.0 0.0 0.00 0.00 0.00 84 1015.8
20180619075015 74 0.0 0.0 0.00 0.00 0.00 84 1015.8
20180619074017 73 0.0 0.0 0.00 0.00 0.00 83 1015.8
20180619073016 73 0.0 0.0 0.00 0.00 0.00 84 1015.4
20180619072016 74 0.0 0.0 0.00 0.00 0.00 83 1015.9
20180619071015 74 0.0 0.0 0.00 0.00 0.00 83 1016.1
20180619070015 74 0.0 0.0 0.00 0.00 0.00 83 1016.3
20180619065016 74 0.0 0.0 0.00 0.00 0.00 83 1016.4
20180619064015 74 0.0 0.0 0.00 0.00 0.00 83 1016.3
20180619063016 74 0.0 0.0 0.00 0.00 0.00 83 1016.3
20180619062015 75 0.0 0.0 0.00 0.00 0.00 83 1016.4
20180619061015 75 0.0 0.0 0.00 0.00 0.00 83 1016.4
20180619060015 75 0.0 0.0 0.00 0.00 0.00 82 1016.5
20180619055015 76 0.0 0.0 0.00 0.00 0.00 82 1016.5
20180619054015 77 0.0 0.0 0.00 0.00 0.00 82 1016.6
20180619053015 77 0.0 3.0 0.00 0.00 0.00 78 1016.8
20180619052015 78 137 0.0 3.0 0.00 0.00 0.00 78 1016.8
20180619051015 78 132 1.0 4.0 0.00 0.00 0.00 77 1016.9
20180619050015 78 122 1.0 4.0 0.00 0.00 0.00 77 1016.9
20180619045015 78 117 2.0 6.0 0.00 0.00 0.00 76 1017.0
20180619044015 78 125 1.0 6.0 0.00 0.00 0.00 76 1017.2
20180619043015 78 124 1.0 7.0 0.00 0.00 0.00 76 1017.3
20180619042015 79 121 2.0 7.0 0.00 0.00 0.00 75 1017.4
20180619041015 79 118 3.0 7.0 0.00 0.00 0.00 75 1017.6